Theta_e
359 362 360 360 375 366 364 357 351 353 356 352 351 357 361 360 365 372 353 354 353 354 353 353 351 353 345 341 350 351 351 353 354 354 353 354 354 355 355 355 355 355 355 355 355 352 353 354 354
363 358 357 365 376 364 365 355 354 354 352 353 352 354 359 364 356 355 354 353 353 351 353 354 353 348 338 344 351 351 354 353 353 352 352 352 355 354 355 355 355 355 355 354 352 351 350 354 354
358 354 363 352 354 356 355 353 352 351 351 352 355 356 359 360 355 354 354 353 352 352 352 355 352 346 347 355 354 354 355 353 353 351 351 349 354 354 354 354 354 353 354 354 352 350 350 353 353
353 359 359 350 353 350 351 350 351 354 353 351 356 361 357 354 356 354 354 353 353 352 352 351 349 350 350 353 354 355 355 354 353 354 351 349 349 353 352 355 353 355 355 355 354 351 349 352 350
349 354 344 348 350 350 349 348 349 352 352 353 355 362 362 356 354 355 355 354 354 354 352 351 350 353 354 355 355 355 354 355 351 349 348 349 352 351 351 353 351 353 352 354 354 353 352 351 353
352 346 346 349 348 348 350 349 348 349 352 354 358 362 362 354 354 354 354 354 354 354 352 351 350 350 354 355 355 354 352 350 347 346 347 349 348 347 348 351 351 352 353 353 354 353 353 352 352
347 345 345 344 346 350 349 348 349 351 350 353 353 362 359 355 353 353 354 351 353 349 351 351 352 352 355 355 354 349 353 349 349 346 346 341 336 338 342 342 345 350 351 352 352 352 349 348 347
348 343 343 343 348 354 348 349 349 350 354 351 352 360 363 355 353 352 353 352 350 348 347 347 349 350 349 351 355 353 350 351 348 344 341 341 335 336 337 343 343 346 351 351 350 350 349 346 340
345 345 346 346 348 351 347 351 352 351 353 352 351 353 355 354 352 351 351 352 351 347 346 346 347 347 347 348 351 351 351 348 341 337 343 337 334 336 335 337 337 340 346 350 349 348 348 342 336
342 344 345 344 345 349 351 353 353 353 354 353 355 355 354 353 352 350 350 352 350 347 346 346 345 345 346 347 350 349 350 349 340 335 336 339 335 335 340 340 341 343 340 346 347 348 343 340 344
342 344 343 344 346 347 351 351 343 345 350 352 357 358 355 353 352 350 350 349 349 347 346 346 347 346 346 350 349 349 349 347 338 335 335 335 335 335 335 336 338 339 340 343 344 346 345 343 344
340 340 341 344 346 347 351 351 348 347 350 350 353 354 353 353 352 350 350 349 349 348 346 346 346 348 348 348 351 348 348 348 343 340 336 336 338 340 342 341 339 336 342 343 343 346 345 346 343
340 338 339 343 345 346 348 351 352 349 349 350 352 353 353 352 350 349 349 349 348 348 347 346 347 348 348 351 349 347 348 348 345 345 344 342 343 343 340 342 345 344 344 344 344 344 343 345 343
338 339 339 341 344 346 349 354 354 350 349 351 351 351 350 349 348 348 349 348 349 348 348 347 348 349 349 349 351 348 346 346 342 340 347 343 343 346 344 344 344 345 347 347 343 343 343 345 343
337 339 339 339 341 344 347 350 353 351 350 351 351 351 350 349 348 350 350 350 350 350 349 348 348 350 350 351 351 350 346 344 342 337 339 342 348 347 347 345 343 347 345 349 346 344 345 344 343
338 339 341 339 340 342 346 351 355 352 351 351 351 351 350 350 349 350 350 352 352 352 353 352 349 349 352 352 353 352 350 349 349 348 342 342 343 348 348 348 346 348 347 345 346 344 344 345 344
337 341 340 339 339 341 343 348 355 353 352 352 351 351 351 351 351 351 351 352 353 353 355 355 354 351 351 353 353 354 353 352 349 349 349 348 347 348 349 349 349 348 347 348 347 345 346 345 342
340 339 338 337 339 339 340 346 353 354 353 352 351 351 351 351 351 351 351 352 352 354 356 357 355 355 354 355 356 355 354 350 353 351 351 350 353 351 351 351 351 349 350 347 349 347 348 347 344
338 338 336 337 335 339 340 344 349 352 352 353 351 350 351 350 350 349 351 351 351 352 355 357 359 358 358 357 357 356 354 354 354 354 354 353 353 352 353 350 349 349 350 348 345 349 351 348 349
338 337 337 336 336 336 338 338 341 346 350 350 352 351 350 350 351 351 352 352 351 352 354 357 359 361 361 359 359 358 355 355 356 355 354 358 355 353 355 352 350 351 351 351 351 349 350 351 348
338 337 336 339 336 335 333 336 340 345 346 346 348 351 349 352 354 351 346 345 347 353 355 357 360 362 363 362 360 360 359 360 357 358 357 358 358 357 355 354 352 351 351 351 352 351 350 351 349
338 335 334 334 335 338 336 338 339 347 348 350 348 350 352 352 354 348 344 343 347 347 351 356 360 362 363 363 361 359 361 358 357 357 356 355 357 357 356 354 354 353 353 352 351 351 351 351 351
337 335 334 334 335 336 337 334 341 345 353 352 352 351 350 353 356 348 345 343 348 351 353 354 359 361 362 362 363 362 361 359 358 357 358 359 358 359 357 355 354 355 355 353 352 350 350 349 350
336 335 334 335 336 336 338 335 347 350 351 355 355 353 350 351 356 352 346 348 351 354 354 354 358 362 362 362 361 361 361 360 358 356 357 355 356 355 358 358 357 356 356 355 354 352 351 351 351
336 336 337 339 341 339 342 335 349 344 346 349 356 354 351 351 357 355 354 354 355 355 354 354 358 363 363 362 361 360 360 360 361 359 355 354 354 352 356 356 357 357 356 356 355 354 353 353 352
336 336 338 343 340 338 339 338 348 346 348 351 354 355 355 355 355 355 356 355 354 355 355 355 359 362 363 362 362 361 360 359 355 350 350 352 352 355 357 357 358 357 356 357 357 354 354 354 353
338 338 334 333 334 333 338 343 346 348 351 355 355 357 358 358 357 357 356 355 351 352 348 351 359 362 363 362 362 359 356 356 354 355 352 352 353 354 356 358 357 358 356 356 356 356 356 353 353
336 336 333 331 333 336 337 342 349 346 352 357 358 359 359 359 358 354 352 351 348 348 349 351 354 358 357 353 354 353 354 353 354 356 356 354 355 356 357 359 359 358 357 356 356 355 355 354 353
334 335 333 333 336 337 341 347 344 348 350 355 357 358 357 356 354 352 351 350 350 349 349 350 351 351 351 348 349 348 348 349 352 351 352 354 354 353 357 359 359 359 359 358 357 358 355 356 355
336 332 332 334 341 344 343 348 345 347 347 350 357 357 356 356 355 354 353 352 353 353 352 351 351 349 348 348 348 346 346 347 347 348 347 347 346 348 352 355 358 357 357 356 357 358 357 355 354
Wind_Speed
8 7 8 7 3 4 7 10 12 11 15 15 12 12 19 18 12 12 15 24 26 22 19 18 20 19 20 20 18 19 18 17 15 14 14 12 12 12 14 14 15 15 16 16 16 15 15 15 17
8 4 9 3 2 9 4 10 13 13 10 11 9 9 17 18 16 18 16 24 25 24 22 20 23 21 21 20 18 17 15 14 13 14 13 12 11 11 11 13 14 14 15 15 15 15 15 13 15
8 8 6 3 8 11 10 9 12 10 11 9 8 14 10 8 11 9 25 21 21 21 22 21 22 22 20 18 16 16 14 13 13 12 12 10 10 10 10 11 12 14 15 14 14 14 14 13 14
8 6 6 10 12 12 10 7 6 11 14 8 14 15 9 8 7 17 23 21 22 20 21 21 21 19 17 15 14 13 12 11 11 11 10 10 10 10 8 9 12 13 14 13 13 13 14 11 11
17 8 11 13 15 11 9 10 11 15 15 12 18 17 12 13 19 23 21 20 19 18 20 19 18 17 16 14 12 12 11 10 10 10 10 10 11 8 7 8 8 10 11 10 11 11 11 11 9
8 2 11 12 13 14 9 7 14 11 14 16 18 16 10 19 21 21 19 20 20 20 21 17 16 14 14 13 12 12 12 10 10 12 13 13 13 10 4 5 5 6 8 8 8 8 8 7 5
2 9 14 17 14 13 10 15 10 8 14 12 14 15 11 16 19 20 18 13 23 20 21 17 15 12 13 13 13 12 11 11 13 14 14 7 11 5 5 2 4 5 5 5 5 6 6 5 4
6 7 20 16 14 14 11 10 11 11 11 7 10 8 17 19 19 23 23 15 9 18 16 16 15 15 13 12 12 12 13 15 18 17 7 4 7 7 5 2 1 2 2 3 3 3 3 4 4
7 8 12 15 17 10 10 14 9 8 10 8 5 19 23 24 20 20 21 19 8 16 17 18 16 15 15 14 12 12 14 16 13 10 6 8 9 9 9 3 3 3 3 4 4 4 5 6 6
4 12 11 12 14 12 14 12 8 7 13 11 16 23 26 22 16 19 17 22 14 15 15 16 16 16 14 16 16 12 13 12 13 9 11 7 9 13 11 9 8 8 8 8 8 8 7 8 12
6 9 11 9 11 12 11 6 13 9 13 14 17 20 20 21 16 16 15 16 16 15 12 13 12 13 13 17 13 12 14 16 14 14 16 14 11 13 19 18 12 10 12 12 11 10 10 12 9
14 6 6 6 5 6 11 11 14 14 14 16 17 19 18 16 14 14 13 16 15 14 13 14 13 11 11 13 11 13 15 17 13 16 18 16 11 14 14 15 17 17 14 13 14 14 14 7 5
8 6 9 6 5 10 5 11 12 13 15 17 18 17 16 15 14 13 13 12 12 13 13 12 12 11 11 8 12 11 11 14 14 11 14 13 14 15 17 14 14 14 14 15 14 14 12 12 12
5 4 10 10 7 7 9 10 10 12 15 17 16 16 14 12 12 13 11 12 12 12 13 13 14 14 14 13 5 10 13 15 15 12 12 17 17 18 19 16 17 18 15 14 15 17 16 14 14
6 12 11 6 7 8 2 8 14 15 14 16 15 14 12 13 15 15 15 13 12 11 12 14 14 15 15 13 13 16 13 14 18 18 16 18 15 18 18 19 20 17 19 15 14 17 17 18 14
13 7 8 11 6 5 13 4 16 16 15 15 15 13 12 13 16 15 12 14 13 14 13 10 13 15 15 15 14 14 17 13 13 14 18 19 19 18 18 19 20 16 14 15 14 13 18 19 16
9 11 7 12 7 2 7 11 15 15 14 15 15 14 13 13 14 14 17 11 14 12 9 10 12 12 15 15 14 14 13 11 14 14 17 13 16 18 19 17 17 14 14 9 13 14 16 18 18
7 4 9 1 13 4 6 12 15 14 14 14 13 15 14 14 14 18 15 16 15 13 14 14 14 12 12 13 14 14 13 13 14 16 17 15 15 15 14 15 15 11 10 11 11 15 13 13 16
7 6 3 5 6 5 5 11 14 15 12 15 16 15 15 16 13 17 15 14 12 13 12 15 15 13 15 15 16 16 17 18 14 13 16 18 18 16 16 15 13 14 14 14 14 14 13 16 15
7 8 5 5 5 10 10 8 10 13 11 12 16 17 16 17 15 14 13 12 11 11 12 13 14 15 16 16 16 16 16 13 15 13 13 16 15 18 15 15 14 13 13 13 13 12 13 13 14
14 10 8 11 9 11 5 14 12 8 6 9 13 18 18 17 16 14 13 14 10 11 12 12 12 14 16 18 16 13 12 12 10 12 13 13 13 14 15 16 16 13 15 14 15 14 13 12 12
6 0 2 5 12 8 9 3 14 13 11 9 13 16 19 17 18 15 8 11 10 6 9 10 11 12 14 15 16 15 14 13 12 12 14 13 13 15 15 16 16 17 16 17 15 14 14 15 14
3 7 5 4 13 11 10 8 9 15 16 10 11 14 14 18 17 17 11 10 5 4 6 7 7 8 9 9 13 13 16 14 13 12 17 12 13 16 16 18 17 18 17 16 17 16 17 16 15
6 8 7 13 14 11 5 9 11 13 15 12 7 7 11 17 19 16 18 12 8 5 3 5 6 5 6 7 9 12 13 12 13 9 13 13 14 14 18 19 18 18 18 18 19 19 19 19 17
12 18 10 9 8 3 9 8 7 13 9 11 11 8 5 3 17 13 13 12 5 3 3 5 4 3 3 5 7 8 10 10 12 9 12 13 11 14 15 17 20 20 21 20 19 20 21 21 21
18 19 9 10 9 6 8 2 4 8 12 11 11 10 10 8 10 9 7 9 10 8 6 6 6 4 3 3 4 4 5 7 7 9 10 10 10 11 13 13 19 22 20 21 21 19 20 21 22
8 14 14 12 8 6 9 8 22 15 12 12 12 13 12 13 12 11 7 10 13 12 10 9 7 5 2 2 2 3 3 6 8 10 8 9 10 11 11 13 17 20 21 21 20 20 21 22 20
13 14 9 9 12 7 4 8 10 14 15 13 14 13 12 13 9 9 9 11 14 14 10 9 6 4 1 2 3 3 2 3 6 9 10 11 13 13 14 14 15 16 19 20 19 21 20 20 21
14 13 11 11 11 2 11 6 11 6 15 13 12 13 12 11 12 11 12 13 11 10 8 8 5 3 0 2 3 1 2 3 4 6 7 8 10 11 13 13 13 13 15 15 15 17 20 18 20
18 16 19 8 4 10 10 4 2 4 2 12 14 12 10 10 13 12 12 11 11 9 7 6 5 4 6 5 6 6 4 4 6 8 9 9 9 8 8 9 10 12 12 13 13 16 18 17 20
Wind_Direction
168 195 241 253 278 87 30 53 43 58 65 48 46 82 73 36 37 99 120 137 139 147 148 150 157 153 148 144 136 134 134 135 132 127 126 124 120 116 115 117 115 117 115 115 115 117 117 117 116
275 270 235 279 205 93 96 37 57 54 62 100 37 57 74 56 84 116 121 135 141 139 142 147 150 151 149 142 135 134 134 139 139 133 132 131 128 127 122 122 120 122 120 117 120 119 119 116 113
261 268 270 356 17 44 54 51 78 70 41 36 109 39 45 101 89 103 130 138 138 134 132 142 148 150 146 140 140 135 140 141 142 137 135 129 131 120 120 125 130 126 124 122 122 124 125 126 117
278 199 241 53 67 64 64 66 93 79 88 53 136 87 78 98 99 126 132 141 133 138 132 143 144 144 147 143 143 136 140 139 140 140 141 135 123 116 120 123 121 121 121 127 128 126 129 124 115
234 272 83 67 71 65 67 57 52 60 44 35 97 94 91 102 126 128 138 142 138 137 137 140 143 142 141 140 137 135 136 135 128 120 108 101 90 96 107 118 124 124 122 125 124 125 125 126 125
264 292 72 69 66 68 52 73 99 95 110 100 104 100 87 133 126 135 140 151 143 151 143 145 153 149 146 143 140 139 132 123 107 104 96 86 94 64 81 122 126 121 125 130 131 134 132 134 131
295 74 80 80 77 68 47 31 60 81 74 79 137 108 120 141 141 141 141 153 159 144 137 148 152 151 146 146 145 140 132 119 106 104 101 123 126 100 24 71 127 143 137 136 139 144 142 144 153
300 99 88 83 75 71 72 76 34 75 84 118 116 139 152 133 161 142 141 143 153 139 140 149 150 153 152 147 145 141 133 122 119 105 111 169 184 213 169 322 85 140 155 158 167 173 171 182 188
242 69 70 66 78 93 84 79 73 101 73 62 103 135 135 144 166 149 143 137 175 145 155 155 156 159 164 156 156 144 134 144 151 147 138 168 180 200 223 266 279 266 246 221 208 214 220 229 237
56 72 65 44 77 77 71 76 115 125 106 95 87 101 131 147 165 148 165 140 187 152 169 155 164 163 171 172 156 165 161 163 164 210 220 213 207 199 231 244 278 271 260 247 231 232 244 254 247
17 92 93 57 43 73 93 79 39 85 100 122 130 133 146 147 173 156 163 153 175 166 176 164 158 168 171 151 159 178 177 187 202 219 226 241 236 223 237 249 253 279 260 255 246 244 238 241 259
107 90 68 55 84 96 75 85 61 64 77 113 129 142 148 160 175 157 162 159 161 176 185 166 178 179 182 171 177 189 195 201 210 208 223 225 237 227 239 244 254 252 250 249 250 243 258 277 256
94 112 111 101 133 91 108 70 90 86 104 117 129 146 154 173 163 158 161 153 170 180 183 182 181 188 210 201 207 192 193 207 202 206 215 222 231 237 240 243 252 243 246 246 247 250 246 236 244
109 260 118 137 118 126 128 132 124 112 122 125 143 145 161 146 151 143 152 163 173 177 181 188 191 190 208 215 225 208 216 215 210 228 232 232 236 239 240 244 254 245 242 247 239 239 245 241 242
197 169 152 134 139 131 174 155 110 138 138 140 141 150 144 149 147 152 147 154 169 173 172 191 196 192 208 209 218 235 234 237 241 246 253 247 247 245 246 243 249 250 239 238 242 236 242 242 228
215 248 148 128 155 159 126 228 133 151 150 151 152 146 157 154 158 157 162 151 156 178 166 185 194 197 202 211 218 224 245 232 242 250 257 252 256 258 255 243 242 233 240 233 233 223 222 222 230
210 202 124 145 168 238 155 149 142 164 162 159 159 156 164 168 160 170 158 179 162 169 172 181 200 204 200 214 219 230 228 240 239 241 250 254 257 250 255 253 250 241 230 228 235 230 227 218 227
192 88 142 215 134 201 183 133 154 180 176 165 172 161 171 174 184 172 182 181 178 176 184 191 200 211 202 216 217 228 231 239 241 241 246 247 250 248 253 255 251 246 229 237 242 231 235 243 239
11 301 254 102 98 234 216 150 177 172 188 171 175 173 181 178 176 172 189 187 195 187 196 198 205 198 207 215 221 233 226 233 237 244 250 251 250 253 253 247 250 240 239 245 243 236 236 240 238
262 253 134 121 185 258 150 231 142 159 193 197 184 174 184 179 169 178 188 193 203 209 200 203 208 201 211 227 235 229 230 244 245 240 242 241 242 242 239 237 247 240 235 229 228 232 234 239 232
233 255 106 135 182 242 243 228 155 138 187 196 208 181 181 175 177 190 193 204 196 201 211 215 210 206 209 223 229 233 249 261 260 248 244 239 241 240 235 236 240 243 230 234 227 233 239 239 232
314 128 145 235 243 171 248 131 198 158 141 184 192 195 182 179 188 202 176 179 186 204 214 212 210 208 211 219 234 227 229 233 243 254 250 245 239 237 239 232 234 238 229 232 235 232 237 232 237
80 234 262 290 282 272 185 259 150 165 143 145 168 189 202 184 188 198 169 172 175 173 201 205 195 208 221 219 234 244 235 251 246 244 254 247 240 237 237 237 230 229 232 235 234 232 234 237 246
311 217 216 235 246 260 156 268 33 334 116 127 140 183 226 198 170 199 200 197 226 263 229 183 166 185 199 220 234 242 259 256 259 256 277 249 249 245 237 235 232 234 231 234 233 230 230 237 240
227 247 218 220 272 355 233 272 88 196 95 118 138 144 160 205 148 192 198 209 187 163 149 137 142 157 194 217 225 239 250 253 259 263 272 295 249 248 250 229 231 231 232 234 230 227 231 228 234
211 251 283 300 279 186 158 339 108 49 110 122 133 135 130 146 127 153 162 169 143 125 117 118 112 125 151 189 205 226 246 255 261 281 297 286 279 226 247 236 235 237 237 230 233 232 228 233 231
219 241 287 310 222 248 183 344 156 147 125 134 134 135 142 127 135 115 113 129 119 122 114 103 105 106 136 190 205 245 256 276 289 312 295 280 283 276 273 270 257 245 242 241 236 235 231 236 235
265 294 210 222 253 242 100 333 152 173 152 137 142 143 134 114 115 113 101 107 113 109 107 101 94 81 53 283 240 252 314 301 300 305 298 290 288 287 281 271 264 255 252 251 246 243 242 240 239
205 244 259 273 269 209 226 93 51 10 143 140 139 141 145 140 127 124 112 114 112 108 110 106 87 75 274 38 355 3 25 351 304 288 282 280 286 285 285 276 265 259 256 256 251 249 246 245 245
251 209 231 219 134 355 306 137 209 342 68 139 135 144 136 136 137 129 116 107 100 88 64 61 35 9 358 347 314 316 316 316 309 303 294 297 308 299 278 285 274 269 266 261 256 251 252 252 251